| time (UTC) | temp F | wind direction | speed MPH | gust MPH | rain 1hr in | rain 24hr in | rain mn in | humidity % | barometer mb |
| 20260905004228 | 84 | 215 | 18.0 | 30.0 | 0.00 | 0.00 | 0.00 | 10 | 1013.1 |
| 20260905003722 | 84 | 223 | 21.0 | 30.0 | 0.00 | 0.00 | 0.00 | 10 | 1013.1 |
| 20260905003215 | 85 | 246 | 17.0 | 27.0 | 0.00 | 0.00 | 0.00 | 10 | 1013.1 |
| 20260905002729 | 85 | 221 | 17.0 | 30.0 | 0.00 | 0.00 | 0.00 | 11 | 1013.0 |
| 20260905002227 | 85 | 214 | 19.0 | 30.0 | 0.00 | 0.00 | 0.00 | 11 | 1013.0 |
| 20260905001721 | 85 | 234 | 20.0 | 34.0 | 0.00 | 0.00 | 0.00 | 11 | 1013.0 |
| 20260905001216 | 85 | 240 | 21.0 | 34.0 | 0.00 | 0.00 | 0.00 | 11 | 1013.1 |
| 20260905000730 | 85 | 227 | 17.0 | 27.0 | 0.00 | 0.00 | 0.00 | 11 | 1013.1 |
| 20260905000245 | 86 | 206 | 21.0 | 30.0 | 0.00 | 0.00 | 0.00 | 11 | 1013.0 |
| 20260904235717 | 86 | 223 | 18.0 | 30.0 | 0.00 | 0.00 | 0.00 | 10 | 1013.0 |
| 20260904235231 | 86 | 213 | 19.0 | 33.0 | 0.00 | 0.00 | 0.00 | 10 | 1013.0 |
| 20260904234724 | 86 | 207 | 18.0 | 33.0 | 0.00 | 0.00 | 0.00 | 10 | 1013.0 |
| 20260904234218 | 86 | 255 | 20.0 | 31.0 | 0.00 | 0.00 | 0.00 | 10 | 1013.1 |
| 20260904233716 | 86 | 221 | 20.0 | 31.0 | 0.00 | 0.00 | 0.00 | 10 | 1013.0 |
| 20260904233230 | 87 | 204 | 21.0 | 29.0 | 0.00 | 0.00 | 0.00 | 10 | 1013.1 |
| 20260904232744 | 87 | 201 | 17.0 | 28.0 | 0.00 | 0.00 | 0.00 | 10 | 1013.0 |
| 20260904232218 | 86 | 239 | 16.0 | 31.0 | 0.00 | 0.00 | 0.00 | 10 | 1013.0 |
| 20260904231752 | 87 | 228 | 21.0 | 31.0 | 0.00 | 0.00 | 0.00 | 10 | 1013.1 |
| 20260904231225 | 87 | 218 | 19.0 | 31.0 | 0.00 | 0.00 | 0.00 | 10 | 1013.0 |
| 20260904230719 | 87 | 222 | 18.0 | 25.0 | 0.00 | 0.00 | 0.00 | 10 | 1013.1 |
| 20260904230233 | 87 | 228 | 20.0 | 25.0 | 0.00 | 0.00 | 0.00 | 10 | 1013.2 |
| 20260904225746 | 87 | 227 | 19.0 | 28.0 | 0.00 | 0.00 | 0.00 | 9 | 1013.2 |
| 20260904225219 | 87 | 213 | 14.0 | 27.0 | 0.00 | 0.00 | 0.00 | 10 | 1013.1 |
| 20260904224737 | 88 | 231 | 17.0 | 30.0 | 0.00 | 0.00 | 0.00 | 9 | 1013.3 |
| 20260904224230 | 88 | 217 | 14.0 | 30.0 | 0.00 | 0.00 | 0.00 | 10 | 1013.3 |
| 20260904223724 | 87 | 211 | 16.0 | 28.0 | 0.00 | 0.00 | 0.00 | 10 | 1013.4 |
| 20260904223218 | 87 | 214 | 20.0 | 28.0 | 0.00 | 0.00 | 0.00 | 9 | 1013.5 |
| 20260904222732 | 87 | 214 | 14.0 | 24.0 | 0.00 | 0.00 | 0.00 | 9 | 1013.5 |
| 20260904222226 | 87 | 219 | 14.0 | 24.0 | 0.00 | 0.00 | 0.00 | 9 | 1013.5 |
| 20260904221740 | 87 | 188 | 19.0 | 28.0 | 0.00 | 0.00 | 0.00 | 9 | 1013.6 |
| 20260904221233 | 87 | 212 | 18.0 | 28.0 | 0.00 | 0.00 | 0.00 | 9 | 1013.7 |
| 20260904220726 | 87 | 228 | 15.0 | 27.0 | 0.00 | 0.00 | 0.00 | 9 | 1013.7 |
| 20260904220226 | 87 | 217 | 18.0 | 26.0 | 0.00 | 0.00 | 0.00 | 9 | 1013.7 |
| 20260904215719 | 87 | 229 | 16.0 | 25.0 | 0.00 | 0.00 | 0.00 | 9 | 1013.8 |
| 20260904215233 | 87 | 229 | 18.0 | 25.0 | 0.00 | 0.00 | 0.00 | 8 | 1013.9 |
| 20260904214727 | 87 | 238 | 15.0 | 25.0 | 0.00 | 0.00 | 0.00 | 9 | 1013.8 |
| 20260904214221 | 87 | 228 | 18.0 | 26.0 | 0.00 | 0.00 | 0.00 | 8 | 1013.9 |
| 20260904213715 | 87 | 244 | 15.0 | 28.0 | 0.00 | 0.00 | 0.00 | 9 | 1013.8 |
| 20260904213229 | 87 | 236 | 19.0 | 30.0 | 0.00 | 0.00 | 0.00 | 8 | 1013.9 |
| 20260904212727 | 87 | 208 | 14.0 | 30.0 | 0.00 | 0.00 | 0.00 | 9 | 1014.0 |
| 20260904212220 | 88 | 236 | 13.0 | 26.0 | 0.00 | 0.00 | 0.00 | 8 | 1014.0 |
| 20260904211714 | 87 | 217 | 15.0 | 27.0 | 0.00 | 0.00 | 0.00 | 8 | 1014.0 |
| 20260904211228 | 87 | 213 | 14.0 | 30.0 | 0.00 | 0.00 | 0.00 | 8 | 1014.1 |
| 20260904210722 | 87 | 224 | 18.0 | 30.0 | 0.00 | 0.00 | 0.00 | 8 | 1014.2 |
| 20260904210237 | 87 | 242 | 19.0 | 31.0 | 0.00 | 0.00 | 0.00 | 8 | 1014.2 |
| 20260904205730 | 86 | 221 | 16.0 | 31.0 | 0.00 | 0.00 | 0.00 | 8 | 1014.2 |
| 20260904205224 | 86 | 239 | 19.0 | 31.0 | 0.00 | 0.00 | 0.00 | 8 | 1014.3 |
| 20260904204722 | 87 | 222 | 15.0 | 22.0 | 0.00 | 0.00 | 0.00 | 8 | 1014.3 |
| 20260904204215 | 87 | 209 | 13.0 | 22.0 | 0.00 | 0.00 | 0.00 | 8 | 1014.3 |
| 20260904203729 | 87 | 196 | 13.0 | 23.0 | 0.00 | 0.00 | 0.00 | 8 | 1014.3 |
| 20260904203224 | 86 | 221 | 13.0 | 21.0 | 0.00 | 0.00 | 0.00 | 7 | 1014.4 |
| 20260904202718 | 86 | 194 | 15.0 | 20.0 | 0.00 | 0.00 | 0.00 | 8 | 1014.3 |
| 20260904202231 | 86 | 223 | 13.0 | 25.0 | 0.00 | 0.00 | 0.00 | 8 | 1014.4 |
| 20260904201744 | 86 | 224 | 13.0 | 25.0 | 0.00 | 0.00 | 0.00 | 7 | 1014.5 |
| 20260904201218 | 86 | 211 | 13.0 | 21.0 | 0.00 | 0.00 | 0.00 | 7 | 1014.6 |
| 20260904200731 | 86 | 193 | 14.0 | 21.0 | 0.00 | 0.00 | 0.00 | 7 | 1014.5 |
| 20260904200231 | 86 | 218 | 13.0 | 22.0 | 0.00 | 0.00 | 0.00 | 7 | 1014.7 |
| 20260904195724 | 86 | 213 | 12.0 | 22.0 | 0.00 | 0.00 | 0.00 | 8 | 1014.7 |
| 20260904195219 | 86 | 198 | 15.0 | 25.0 | 0.00 | 0.00 | 0.00 | 7 | 1014.8 |
| 20260904194733 | 86 | 213 | 12.0 | 25.0 | 0.00 | 0.00 | 0.00 | 7 | 1014.7 |
| 20260904194226 | 86 | 223 | 16.0 | 26.0 | 0.00 | 0.00 | 0.00 | 7 | 1014.9 |
| 20260904193720 | 86 | 213 | 14.0 | 26.0 | 0.00 | 0.00 | 0.00 | 7 | 1014.8 |
| 20260904193214 | 86 | 188 | 16.0 | 22.0 | 0.00 | 0.00 | 0.00 | 5 | 1015.0 |
| 20260904192727 | 85 | 184 | 12.0 | 22.0 | 0.00 | 0.00 | 0.00 | 7 | 1015.0 |
| 20260904192246 | 86 | 227 | 15.0 | 25.0 | 0.00 | 0.00 | 0.00 | 7 | 1015.0 |
| 20260904191718 | 85 | 202 | 8.0 | 26.0 | 0.00 | 0.00 | 0.00 | 6 | 1015.1 |
| 20260904191233 | 85 | 211 | 16.0 | 26.0 | 0.00 | 0.00 | 0.00 | 6 | 1015.2 |
| 20260904190727 | 84 | 213 | 15.0 | 22.0 | 0.00 | 0.00 | 0.00 | 6 | 1015.2 |
| 20260904190222 | 84 | 208 | 13.0 | 22.0 | 0.00 | 0.00 | 0.00 | 6 | 1015.3 |
| 20260904185716 | 84 | 173 | 13.0 | 22.0 | 0.00 | 0.00 | 0.00 | 7 | 1015.3 |
| 20260904185231 | 84 | 220 | 13.0 | 23.0 | 0.00 | 0.00 | 0.00 | 7 | 1015.4 |
| 20260904184745 | 83 | 218 | 14.0 | 22.0 | 0.00 | 0.00 | 0.00 | 7 | 1015.5 |
| 20260904184222 | 83 | 215 | 14.0 | 21.0 | 0.00 | 0.00 | 0.00 | 7 | 1015.5 |
| 20260904183716 | 83 | 202 | 13.0 | 24.0 | 0.00 | 0.00 | 0.00 | 8 | 1015.6 |
| 20260904183229 | 82 | 204 | 15.0 | 24.0 | 0.00 | 0.00 | 0.00 | 8 | 1015.8 |
| 20260904182722 | 82 | 229 | 15.0 | 23.0 | 0.00 | 0.00 | 0.00 | 9 | 1015.9 |
| 20260904182216 | 82 | 207 | 16.0 | 23.0 | 0.00 | 0.00 | 0.00 | 9 | 1015.9 |
| 20260904181729 | 82 | 223 | 12.0 | 22.0 | 0.00 | 0.00 | 0.00 | 8 | 1016.0 |
| 20260904181244 | 82 | 214 | 15.0 | 21.0 | 0.00 | 0.00 | 0.00 | 7 | 1016.0 |
| 20260904180736 | 82 | 216 | 12.0 | 20.0 | 0.00 | 0.00 | 0.00 | 8 | 1016.1 |
| 20260904180232 | 82 | 196 | 12.0 | 19.0 | 0.00 | 0.00 | 0.00 | 8 | 1016.2 |
| 20260904175725 | 81 | 231 | 11.0 | 23.0 | 0.00 | 0.00 | 0.00 | 9 | 1016.1 |
| 20260904175223 | 81 | 216 | 10.0 | 25.0 | 0.00 | 0.00 | 0.00 | 10 | 1016.2 |
| 20260904174716 | 81 | 215 | 16.0 | 23.0 | 0.00 | 0.00 | 0.00 | 9 | 1016.2 |
| 20260904174250 | 80 | 214 | 15.0 | 23.0 | 0.00 | 0.00 | 0.00 | 9 | 1016.3 |
| 20260904173723 | 80 | 195 | 15.0 | 22.0 | 0.00 | 0.00 | 0.00 | 10 | 1016.3 |
| 20260904173218 | 80 | 209 | 17.0 | 22.0 | 0.00 | 0.00 | 0.00 | 9 | 1016.2 |
| 20260904172731 | 80 | 195 | 13.0 | 23.0 | 0.00 | 0.00 | 0.00 | 10 | 1016.2 |
| 20260904172225 | 79 | 184 | 16.0 | 23.0 | 0.00 | 0.00 | 0.00 | 9 | 1016.3 |
| 20260904171719 | 79 | 211 | 17.0 | 27.0 | 0.00 | 0.00 | 0.00 | 9 | 1016.3 |
| 20260904171233 | 79 | 209 | 14.0 | 27.0 | 0.00 | 0.00 | 0.00 | 10 | 1016.2 |
| 20260904170725 | 78 | 207 | 18.0 | 27.0 | 0.00 | 0.00 | 0.00 | 11 | 1016.2 |
| 20260904170244 | 78 | 210 | 14.0 | 23.0 | 0.00 | 0.00 | 0.00 | 13 | 1016.3 |
| 20260904165737 | 77 | 182 | 17.0 | 25.0 | 0.00 | 0.00 | 0.00 | 12 | 1016.3 |
| 20260904165230 | 77 | 196 | 16.0 | 25.0 | 0.00 | 0.00 | 0.00 | 13 | 1016.3 |
| 20260904164724 | 78 | 213 | 14.0 | 22.0 | 0.00 | 0.00 | 0.00 | 13 | 1016.3 |
| 20260904164218 | 77 | 170 | 10.0 | 27.0 | 0.00 | 0.00 | 0.00 | 15 | 1016.3 |
| 20260904163752 | 76 | 211 | 15.0 | 27.0 | 0.00 | 0.00 | 0.00 | 14 | 1016.3 |
| 20260904163225 | 76 | 178 | 15.0 | 22.0 | 0.00 | 0.00 | 0.00 | 15 | 1016.3 |
| 20260904162719 | 76 | 210 | 14.0 | 21.0 | 0.00 | 0.00 | 0.00 | 15 | 1016.3 |
| 20260904162233 | 76 | 200 | 14.0 | 24.0 | 0.00 | 0.00 | 0.00 | 17 | 1016.2 |
| 20260904161726 | 75 | 242 | 15.0 | 24.0 | 0.00 | 0.00 | 0.00 | 17 | 1016.3 |
| 20260904161224 | 75 | 209 | 13.0 | 22.0 | 0.00 | 0.00 | 0.00 | 18 | 1016.3 |
| 20260904160719 | 75 | 205 | 14.0 | 23.0 | 0.00 | 0.00 | 0.00 | 17 | 1016.3 |
| 20260904160214 | 75 | 193 | 15.0 | 25.0 | 0.00 | 0.00 | 0.00 | 16 | 1016.3 |
| 20260904155728 | 75 | 207 | 13.0 | 25.0 | 0.00 | 0.00 | 0.00 | 17 | 1016.3 |
| 20260904155222 | 75 | 225 | 13.0 | 24.0 | 0.00 | 0.00 | 0.00 | 18 | 1016.3 |
| 20260904154716 | 74 | 206 | 13.0 | 19.0 | 0.00 | 0.00 | 0.00 | 19 | 1016.3 |
| 20260904154230 | 74 | 209 | 8.0 | 14.0 | 0.00 | 0.00 | 0.00 | 20 | 1016.3 |
| 20260904153728 | 74 | 207 | 8.0 | 14.0 | 0.00 | 0.00 | 0.00 | 21 | 1016.2 |
| 20260904153222 | 74 | 213 | 8.0 | 15.0 | 0.00 | 0.00 | 0.00 | 23 | 1016.2 |
| 20260904152736 | 73 | 198 | 8.0 | 15.0 | 0.00 | 0.00 | 0.00 | 24 | 1016.2 |
| 20260904152230 | 73 | 216 | 9.0 | 14.0 | 0.00 | 0.00 | 0.00 | 24 | 1016.2 |
| 20260904151723 | 72 | 216 | 7.0 | 11.0 | 0.00 | 0.00 | 0.00 | 24 | 1016.2 |
| 20260904151217 | 72 | 216 | 6.0 | 12.0 | 0.00 | 0.00 | 0.00 | 25 | 1016.1 |
| 20260904150731 | 72 | 219 | 8.0 | 12.0 | 0.00 | 0.00 | 0.00 | 25 | 1016.1 |
| 20260904150226 | 72 | 225 | 8.0 | 11.0 | 0.00 | 0.00 | 0.00 | 25 | 1016.0 |
| 20260904145723 | 71 | 219 | 7.0 | 11.0 | 0.00 | 0.00 | 0.00 | 25 | 1016.0 |
| 20260904145217 | 71 | 223 | 8.0 | 12.0 | 0.00 | 0.00 | 0.00 | 25 | 1015.9 |
| 20260904144731 | 71 | 217 | 6.0 | 12.0 | 0.00 | 0.00 | 0.00 | 25 | 1015.9 |
| 20260904144225 | 71 | 209 | 8.0 | 10.0 | 0.00 | 0.00 | 0.00 | 24 | 1015.8 |
| 20260904143739 | 71 | 200 | 8.0 | 11.0 | 0.00 | 0.00 | 0.00 | 23 | 1015.6 |
| 20260904143232 | 70 | 202 | 8.0 | 11.0 | 0.00 | 0.00 | 0.00 | 23 | 1015.6 |
| 20260904142726 | 70 | 200 | 6.0 | 10.0 | 0.00 | 0.00 | 0.00 | 23 | 1015.6 |
| 20260904142220 | 70 | 196 | 6.0 | 10.0 | 0.00 | 0.00 | 0.00 | 23 | 1015.6 |
| 20260904141717 | 68 | 192 | 5.0 | 7.0 | 0.00 | 0.00 | 0.00 | 26 | 1015.5 |
| 20260904141232 | 68 | 192 | 4.0 | 7.0 | 0.00 | 0.00 | 0.00 | 26 | 1015.4 |
| 20260904140745 | 67 | 190 | 3.0 | 5.0 | 0.00 | 0.00 | 0.00 | 27 | 1015.5 |
| 20260904140219 | 66 | 190 | 3.0 | 6.0 | 0.00 | 0.00 | 0.00 | 28 | 1015.4 |
| 20260904135713 | 65 | 190 | 4.0 | 6.0 | 0.00 | 0.00 | 0.00 | 28 | 1015.5 |
| 20260904135248 | 64 | 190 | 4.0 | 6.0 | 0.00 | 0.00 | 0.00 | 29 | 1015.4 |
| 20260904134720 | 63 | 190 | 3.0 | 5.0 | 0.00 | 0.00 | 0.00 | 31 | 1015.3 |
| 20260904134235 | 61 | 190 | 3.0 | 6.0 | 0.00 | 0.00 | 0.00 | 33 | 1015.2 |
| 20260904133727 | 61 | 190 | 3.0 | 6.0 | 0.00 | 0.00 | 0.00 | 32 | 1015.2 |
| 20260904133222 | 61 | 190 | 3.0 | 5.0 | 0.00 | 0.00 | 0.00 | 32 | 1015.1 |
| 20260904132739 | 60 | 190 | 2.0 | 4.0 | 0.00 | 0.00 | 0.00 | 33 | 1015.0 |
| 20260904132233 | 59 | 190 | 2.0 | 3.0 | 0.00 | 0.00 | 0.00 | 34 | 1015.0 |
| 20260904131728 | 60 | 190 | 1.0 | 4.0 | 0.00 | 0.00 | 0.00 | 33 | 1014.9 |
| 20260904131222 | 61 | 190 | 2.0 | 5.0 | 0.00 | 0.00 | 0.00 | 30 | 1014.8 |
| 20260904130715 | 61 | 190 | 2.0 | 5.0 | 0.00 | 0.00 | 0.00 | 30 | 1014.7 |
| 20260904130252 | 61 | 190 | 3.0 | 5.0 | 0.00 | 0.00 | 0.00 | 30 | 1014.6 |
| 20260904125724 | 62 | 190 | 3.0 | 5.0 | 0.00 | 0.00 | 0.00 | 28 | 1014.6 |
| 20260904125238 | 63 | 190 | 4.0 | 5.0 | 0.00 | 0.00 | 0.00 | 27 | 1014.6 |
| 20260904124731 | 63 | 190 | 3.0 | 6.0 | 0.00 | 0.00 | 0.00 | 28 | 1014.5 |
| 20260904124230 | 64 | 190 | 3.0 | 7.0 | 0.00 | 0.00 | 0.00 | 27 | 1014.4 |
| 20260904123723 | 65 | 190 | 5.0 | 8.0 | 0.00 | 0.00 | 0.00 | 25 | 1014.3 |
| 20260904123217 | 66 | 190 | 5.0 | 8.0 | 0.00 | 0.00 | 0.00 | 24 | 1014.2 |
| 20260904122731 | 66 | 189 | 5.0 | 8.0 | 0.00 | 0.00 | 0.00 | 23 | 1014.2 |
| 20260904122226 | 67 | 178 | 3.0 | 8.0 | 0.00 | 0.00 | 0.00 | 23 | 1014.1 |
| 20260904121720 | 67 | 178 | 5.0 | 9.0 | 0.00 | 0.00 | 0.00 | 23 | 1014.0 |
| 20260904121214 | 67 | 184 | 5.0 | 9.0 | 0.00 | 0.00 | 0.00 | 22 | 1014.1 |
| 20260904120728 | 67 | 188 | 5.0 | 11.0 | 0.00 | 0.00 | 0.00 | 21 | 1014.0 |
| 20260904120227 | 68 | 186 | 6.0 | 11.0 | 0.00 | 0.00 | 0.00 | 21 | 1014.0 |
| 20260904115720 | 68 | 184 | 7.0 | 14.0 | 0.00 | 0.00 | 0.00 | 20 | 1014.0 |
| 20260904115214 | 69 | 194 | 8.0 | 14.0 | 0.00 | 0.00 | 0.00 | 20 | 1014.0 |
| 20260904114748 | 68 | 187 | 10.0 | 13.0 | 0.00 | 0.00 | 0.00 | 21 | 1013.9 |
| 20260904114220 | 68 | 177 | 8.0 | 13.0 | 0.00 | 0.00 | 0.00 | 20 | 1013.9 |
| 20260904113714 | 68 | 192 | 7.0 | 12.0 | 0.00 | 0.00 | 0.00 | 19 | 1013.9 |
| 20260904113248 | 68 | 180 | 8.0 | 12.0 | 0.00 | 0.00 | 0.00 | 18 | 1013.8 |
| 20260904112721 | 68 | 187 | 8.0 | 14.0 | 0.00 | 0.00 | 0.00 | 18 | 1013.8 |
| 20260904111733 | 67 | 192 | 7.0 | 12.0 | 0.00 | 0.00 | 0.00 | 16 | 1013.8 |
| 20260904111227 | 66 | 193 | 7.0 | 13.0 | 0.00 | 0.00 | 0.00 | 16 | 1013.9 |
| 20260904110721 | 67 | 185 | 6.0 | 13.0 | 0.00 | 0.00 | 0.00 | 15 | 1013.9 |
| 20260904110216 | 67 | 184 | 6.0 | 11.0 | 0.00 | 0.00 | 0.00 | 15 | 1013.9 |
| 20260904105751 | 67 | 191 | 6.0 | 11.0 | 0.00 | 0.00 | 0.00 | 14 | 1014.0 |
| 20260904105223 | 67 | 190 | 7.0 | 11.0 | 0.00 | 0.00 | 0.00 | 13 | 1013.9 |
| 20260904104717 | 67 | 188 | 6.0 | 11.0 | 0.00 | 0.00 | 0.00 | 13 | 1013.9 |
| 20260904104215 | 68 | 198 | 6.0 | 12.0 | 0.00 | 0.00 | 0.00 | 13 | 1014.0 |
| 20260904103728 | 68 | 192 | 7.0 | 12.0 | 0.00 | 0.00 | 0.00 | 13 | 1013.8 |
| 20260904103223 | 67 | 188 | 6.0 | 11.0 | 0.00 | 0.00 | 0.00 | 13 | 1013.8 |
| 20260904102716 | 67 | 189 | 7.0 | 11.0 | 0.00 | 0.00 | 0.00 | 13 | 1013.8 |
| 20260904102230 | 67 | 183 | 6.0 | 10.0 | 0.00 | 0.00 | 0.00 | 12 | 1013.8 |
| 20260904101723 | 67 | 194 | 6.0 | 10.0 | 0.00 | 0.00 | 0.00 | 12 | 1013.7 |
| 20260904101217 | 67 | 200 | 8.0 | 10.0 | 0.00 | 0.00 | 0.00 | 11 | 1013.6 |
| 20260904100731 | 67 | 196 | 8.0 | 10.0 | 0.00 | 0.00 | 0.00 | 11 | 1013.6 |
| 20260904100226 | 67 | 197 | 7.0 | 11.0 | 0.00 | 0.00 | 0.00 | 11 | 1013.6 |
| 20260904095724 | 68 | 198 | 7.0 | 13.0 | 0.00 | 0.00 | 0.00 | 10 | 1013.5 |
| 20260904095238 | 68 | 198 | 7.0 | 15.0 | 0.00 | 0.00 | 0.00 | 9 | 1013.4 |
| 20260904094731 | 68 | 195 | 9.0 | 15.0 | 0.00 | 0.00 | 0.00 | 9 | 1013.3 |
| 20260904094225 | 68 | 194 | 7.0 | 12.0 | 0.00 | 0.00 | 0.00 | 9 | 1013.4 |
| 20260904093719 | 68 | 207 | 7.0 | 12.0 | 0.00 | 0.00 | 0.00 | 8 | 1013.3 |
| 20260904093233 | 68 | 196 | 8.0 | 14.0 | 0.00 | 0.00 | 0.00 | 8 | 1013.4 |
| 20260904092727 | 69 | 185 | 9.0 | 19.0 | 0.00 | 0.00 | 0.00 | 8 | 1013.3 |
| 20260904092221 | 69 | 198 | 9.0 | 19.0 | 0.00 | 0.00 | 0.00 | 8 | 1013.4 |
| 20260904091738 | 68 | 202 | 6.0 | 15.0 | 0.00 | 0.00 | 0.00 | 8 | 1013.3 |
| 20260904091252 | 69 | 183 | 7.0 | 15.0 | 0.00 | 0.00 | 0.00 | 7 | 1013.3 |
| 20260904090725 | 69 | 169 | 8.0 | 15.0 | 0.00 | 0.00 | 0.00 | 7 | 1013.3 |
| 20260904090241 | 69 | 195 | 8.0 | 15.0 | 0.00 | 0.00 | 0.00 | 7 | 1013.3 |
| 20260904085754 | 69 | 180 | 8.0 | 15.0 | 0.00 | 0.00 | 0.00 | 6 | 1013.3 |
| 20260904085227 | 69 | 167 | 10.0 | 14.0 | 0.00 | 0.00 | 0.00 | 7 | 1013.3 |
| 20260904084721 | 69 | 173 | 7.0 | 12.0 | 0.00 | 0.00 | 0.00 | 7 | 1013.2 |
| 20260904084236 | 69 | 190 | 6.0 | 14.0 | 0.00 | 0.00 | 0.00 | 6 | 1013.3 |
| 20260904083729 | 69 | 172 | 7.0 | 14.0 | 0.00 | 0.00 | 0.00 | 6 | 1013.3 |
| 20260904083223 | 69 | 175 | 9.0 | 13.0 | 0.00 | 0.00 | 0.00 | 5 | 1013.3 |
| 20260904082721 | 69 | 178 | 7.0 | 13.0 | 0.00 | 0.00 | 0.00 | 5 | 1013.3 |
| 20260904082215 | 69 | 193 | 6.0 | 14.0 | 0.00 | 0.00 | 0.00 | 5 | 1013.3 |
| 20260904081729 | 69 | 162 | 8.0 | 14.0 | 0.00 | 0.00 | 0.00 | 5 | 1013.2 |
| 20260904081223 | 69 | 191 | 8.0 | 17.0 | 0.00 | 0.00 | 0.00 | 5 | 1013.3 |
| 20260904080737 | 70 | 180 | 7.0 | 17.0 | 0.00 | 0.00 | 0.00 | 4 | 1013.3 |
| 20260904080232 | 70 | 159 | 7.0 | 18.0 | 0.00 | 0.00 | 0.00 | 4 | 1013.4 |
| 20260904075725 | 70 | 163 | 8.0 | 20.0 | 0.00 | 0.00 | 0.00 | 4 | 1013.3 |
| 20260904075219 | 70 | 192 | 8.0 | 20.0 | 0.00 | 0.00 | 0.00 | 4 | 1013.3 |
| 20260904074717 | 70 | 179 | 9.0 | 15.0 | 0.00 | 0.00 | 0.00 | 4 | 1013.2 |
| 20260904074232 | 70 | 151 | 7.0 | 13.0 | 0.00 | 0.00 | 0.00 | 4 | 1013.3 |
| 20260904073725 | 70 | 163 | 8.0 | 13.0 | 0.00 | 0.00 | 0.00 | 4 | 1013.3 |
| 20260904073220 | 69 | 159 | 7.0 | 12.0 | 0.00 | 0.00 | 0.00 | 5 | 1013.3 |
| 20260904072713 | 69 | 165 | 7.0 | 12.0 | 0.00 | 0.00 | 0.00 | 5 | 1013.2 |
| 20260904072248 | 69 | 158 | 7.0 | 12.0 | 0.00 | 0.00 | 0.00 | 5 | 1013.2 |
| 20260904071721 | 69 | 159 | 9.0 | 12.0 | 0.00 | 0.00 | 0.00 | 4 | 1013.2 |
| 20260904070729 | 70 | 162 | 6.0 | 20.0 | 0.00 | 0.00 | 0.00 | 4 | 1013.2 |
| 20260904070228 | 71 | 178 | 8.0 | 23.0 | 0.00 | 0.00 | 0.00 | 4 | 1013.2 |
| 20260904065722 | 70 | 188 | 12.0 | 23.0 | 0.00 | 0.00 | 0.00 | 3 | 1013.2 |
| 20260904065216 | 70 | 183 | 8.0 | 15.0 | 0.00 | 0.00 | 0.00 | 4 | 1013.2 |
| 20260904064730 | 70 | 175 | 10.0 | 18.0 | 0.00 | 0.00 | 0.00 | 3 | 1013.1 |
| 20260904064224 | 71 | 203 | 12.0 | 18.0 | 0.00 | 0.00 | 0.00 | 3 | 1013.1 |
| 20260904063718 | 70 | 188 | 11.0 | 18.0 | 0.00 | 0.00 | 0.00 | 4 | 1013.0 |
| 20260904063252 | 70 | 180 | 8.0 | 13.0 | 0.00 | 0.00 | 0.00 | 4 | 1013.1 |
| 20260904062724 | 70 | 190 | 9.0 | 16.0 | 0.00 | 0.00 | 0.00 | 4 | 1013.0 |
| 20260904062222 | 71 | 194 | 8.0 | 16.0 | 0.00 | 0.00 | 0.00 | 3 | 1013.0 |
| 20260904061717 | 71 | 186 | 9.0 | 13.0 | 0.00 | 0.00 | 0.00 | 3 | 1013.0 |
| 20260904061231 | 71 | 143 | 9.0 | 15.0 | 0.00 | 0.00 | 0.00 | 4 | 1013.0 |
| 20260904060725 | 70 | 180 | 8.0 | 15.0 | 0.00 | 0.00 | 0.00 | 4 | 1013.0 |
| 20260904060220 | 70 | 168 | 7.0 | 16.0 | 0.00 | 0.00 | 0.00 | 4 | 1013.0 |
| 20260904055714 | 70 | 196 | 7.0 | 12.0 | 0.00 | 0.00 | 0.00 | 4 | 1013.0 |
| 20260904055229 | 71 | 184 | 8.0 | 13.0 | 0.00 | 0.00 | 0.00 | 4 | 1013.0 |
| 20260904054723 | 70 | 182 | 7.0 | 13.0 | 0.00 | 0.00 | 0.00 | 4 | 1012.9 |
| 20260904054241 | 71 | 180 | 6.0 | 10.0 | 0.00 | 0.00 | 0.00 | 4 | 1012.9 |
| 20260904053754 | 71 | 187 | 7.0 | 13.0 | 0.00 | 0.00 | 0.00 | 5 | 1012.9 |
| 20260904053227 | 71 | 176 | 7.0 | 13.0 | 0.00 | 0.00 | 0.00 | 4 | 1012.9 |
| 20260904052721 | 72 | 189 | 7.0 | 13.0 | 0.00 | 0.00 | 0.00 | 4 | 1012.8 |
| 20260904052214 | 72 | 180 | 7.0 | 12.0 | 0.00 | 0.00 | 0.00 | 4 | 1012.8 |
| 20260904051728 | 71 | 211 | 6.0 | 11.0 | 0.00 | 0.00 | 0.00 | 5 | 1012.8 |
| 20260904051223 | 71 | 176 | 7.0 | 10.0 | 0.00 | 0.00 | 0.00 | 6 | 1012.8 |
| 20260904050718 | 71 | 184 | 5.0 | 11.0 | 0.00 | 0.00 | 0.00 | 5 | 1012.8 |
| 20260904050233 | 71 | 171 | 5.0 | 10.0 | 0.00 | 0.00 | 0.00 | 6 | 1012.7 |
| 20260904045730 | 71 | 167 | 6.0 | 10.0 | 0.00 | 0.00 | 0.00 | 5 | 1012.8 |
| 20260904045244 | 72 | 165 | 7.0 | 10.0 | 0.00 | 0.00 | 0.00 | 5 | 1012.8 |
| 20260904044737 | 72 | 157 | 7.0 | 10.0 | 0.00 | 0.00 | 0.00 | 5 | 1012.8 |
| 20260904044230 | 72 | 165 | 6.0 | 11.0 | 0.00 | 0.00 | 0.00 | 4 | 1012.8 |
| 20260904043724 | 71 | 181 | 7.0 | 12.0 | 0.00 | 0.00 | 0.00 | 5 | 1012.8 |
| 20260904043218 | 72 | 182 | 6.0 | 15.0 | 0.00 | 0.00 | 0.00 | 5 | 1012.8 |
| 20260904042732 | 72 | 157 | 8.0 | 15.0 | 0.00 | 0.00 | 0.00 | 5 | 1012.8 |
| 20260904042226 | 72 | 157 | 7.0 | 13.0 | 0.00 | 0.00 | 0.00 | 5 | 1012.8 |
| 20260904041720 | 73 | 184 | 7.0 | 13.0 | 0.00 | 0.00 | 0.00 | 5 | 1012.8 |
| 20260904041219 | 73 | 183 | 8.0 | 16.0 | 0.00 | 0.00 | 0.00 | 5 | 1012.8 |
| 20260904040752 | 73 | 178 | 9.0 | 16.0 | 0.00 | 0.00 | 0.00 | 5 | 1012.8 |
| 20260904040246 | 74 | 180 | 8.0 | 15.0 | 0.00 | 0.00 | 0.00 | 5 | 1012.7 |
| 20260904035718 | 74 | 166 | 11.0 | 18.0 | 0.00 | 0.00 | 0.00 | 4 | 1012.6 |
| 20260904035232 | 74 | 165 | 8.0 | 18.0 | 0.00 | 0.00 | 0.00 | 4 | 1012.5 |
| 20260904034725 | 74 | 141 | 9.0 | 15.0 | 0.00 | 0.00 | 0.00 | 5 | 1012.6 |
| 20260904034220 | 74 | 184 | 8.0 | 15.0 | 0.00 | 0.00 | 0.00 | 5 | 1012.5 |
| 20260904033713 | 74 | 157 | 8.0 | 15.0 | 0.00 | 0.00 | 0.00 | 6 | 1012.6 |
| 20260904033228 | 74 | 193 | 9.0 | 18.0 | 0.00 | 0.00 | 0.00 | 6 | 1012.6 |
| 20260904032726 | 74 | 183 | 5.0 | 14.0 | 0.00 | 0.00 | 0.00 | 6 | 1012.5 |
| 20260904032220 | 74 | 180 | 9.0 | 14.0 | 0.00 | 0.00 | 0.00 | 6 | 1012.5 |
| 20260904031714 | 74 | 173 | 7.0 | 13.0 | 0.00 | 0.00 | 0.00 | 6 | 1012.4 |
| 20260904031228 | 74 | 185 | 7.0 | 13.0 | 0.00 | 0.00 | 0.00 | 6 | 1012.4 |
| 20260904030722 | 74 | 197 | 7.0 | 12.0 | 0.00 | 0.00 | 0.00 | 6 | 1012.3 |
| 20260904030217 | 74 | 149 | 7.0 | 11.0 | 0.00 | 0.00 | 0.00 | 6 | 1012.3 |
| 20260904025731 | 74 | 190 | 6.0 | 12.0 | 0.00 | 0.00 | 0.00 | 7 | 1012.3 |
| 20260904025228 | 74 | 179 | 5.0 | 12.0 | 0.00 | 0.00 | 0.00 | 6 | 1012.3 |
| 20260904024722 | 74 | 178 | 5.0 | 10.0 | 0.00 | 0.00 | 0.00 | 6 | 1012.2 |
| 20260904024216 | 75 | 176 | 6.0 | 10.0 | 0.00 | 0.00 | 0.00 | 6 | 1012.1 |
| 20260904023730 | 74 | 163 | 8.0 | 12.0 | 0.00 | 0.00 | 0.00 | 6 | 1012.1 |
| 20260904023244 | 75 | 163 | 8.0 | 12.0 | 0.00 | 0.00 | 0.00 | 6 | 1012.1 |
| 20260904022717 | 75 | 182 | 6.0 | 12.0 | 0.00 | 0.00 | 0.00 | 5 | 1012.1 |
| 20260904022231 | 75 | 170 | 9.0 | 12.0 | 0.00 | 0.00 | 0.00 | 6 | 1012.0 |
| 20260904021724 | 76 | 196 | 5.0 | 12.0 | 0.00 | 0.00 | 0.00 | 5 | 1012.0 |
| 20260904021224 | 76 | 186 | 7.0 | 13.0 | 0.00 | 0.00 | 0.00 | 5 | 1012.0 |
| 20260904020718 | 77 | 193 | 7.0 | 13.0 | 0.00 | 0.00 | 0.00 | 4 | 1012.0 |
| 20260904020233 | 77 | 217 | 9.0 | 16.0 | 0.00 | 0.00 | 0.00 | 4 | 1011.9 |
| 20260904015726 | 78 | 191 | 10.0 | 17.0 | 0.00 | 0.00 | 0.00 | 3 | 1011.9 |
| 20260904015221 | 78 | 195 | 12.0 | 20.0 | 0.00 | 0.00 | 0.00 | 3 | 1011.8 |
| 20260904014715 | 79 | 197 | 12.0 | 22.0 | 0.00 | 0.00 | 0.00 | 3 | 1011.8 |
| 20260904014228 | 79 | 220 | 16.0 | 22.0 | 0.00 | 0.00 | 0.00 | 2 | 1011.8 |
| 20260904013722 | 79 | 216 | 12.0 | 19.0 | 0.00 | 0.00 | 0.00 | 2 | 1011.8 |
| 20260904013220 | 80 | 202 | 12.0 | 27.0 | 0.00 | 0.00 | 0.00 | 2 | 1011.8 |
| 20260904012754 | 80 | 217 | 11.0 | 27.0 | 0.00 | 0.00 | 0.00 | 2 | 1011.9 |
| 20260904012227 | 80 | 215 | 14.0 | 27.0 | 0.00 | 0.00 | 0.00 | 2 | 1011.8 |
| 20260904011720 | 80 | 209 | 12.0 | 25.0 | 0.00 | 0.00 | 0.00 | 2 | 1011.8 |
| 20260904011215 | 81 | 229 | 18.0 | 25.0 | 0.00 | 0.00 | 0.00 | 2 | 1011.7 |
| 20260904010728 | 81 | 211 | 13.0 | 23.0 | 0.00 | 0.00 | 0.00 | 2 | 1011.7 |
| 20260904010244 | 82 | 221 | 14.0 | 28.0 | 0.00 | 0.00 | 0.00 | 2 | 1011.7 |
| 20260904005736 | 82 | 214 | 17.0 | 28.0 | 0.00 | 0.00 | 0.00 | 2 | 1011.7 |
| 20260904005250 | 82 | 244 | 14.0 | 25.0 | 0.00 | 0.00 | 0.00 | 2 | 1011.7 |
| 20260904004722 | 82 | 222 | 20.0 | 26.0 | 0.00 | 0.00 | 0.00 | 2 | 1011.7 |